contact:dominique.lefevre@mio.osupytheas.fr, maurice.libes@osupytheas.fr, didier.mallarino@osupytheas.fr
Project:EMSO http://www.emso-fr.org/EMSO-France
Depth: 2436.0 m
Title:EMSO Ligure Ouest : Data MII capteur MICROCAT
DateTime_Computer,Latitude,Longitude,Temperature,Conductivity,Pressure,DateTime_Instrument
DateTime_Computer,Latitude,Longitude,degC,S m-1,dbar,DateTime_Instrument
2019-11-24T00:02:22Z,42.805,6.029,13.2961,4.59964,2469.9,2019-11-24T02:02:50Z
2019-11-24T00:05:25Z,42.805,6.029,13.2964,4.59965,2469.923,2019-11-24T02:05:54Z
2019-11-24T00:08:28Z,42.805,6.029,13.2965,4.59964,2469.947,2019-11-24T02:08:57Z
2019-11-24T00:11:31Z,42.805,6.029,13.2967,4.59963,2469.96,2019-11-24T02:12:00Z
2019-11-24T00:14:35Z,42.805,6.029,13.2962,4.59964,2469.937,2019-11-24T02:15:03Z
2019-11-24T00:17:38Z,42.805,6.029,13.2967,4.59963,2469.96,2019-11-24T02:18:06Z
2019-11-24T00:20:41Z,42.805,6.029,13.2962,4.59964,2469.937,2019-11-24T02:21:10Z
2019-11-24T00:23:45Z,42.805,6.029,13.2964,4.59965,2469.947,2019-11-24T02:24:13Z
2019-11-24T00:26:48Z,42.805,6.029,13.2963,4.59966,2469.923,2019-11-24T02:27:16Z
2019-11-24T00:29:51Z,42.805,6.029,13.2968,4.59964,2469.923,2019-11-24T02:30:19Z
2019-11-24T00:32:54Z,42.805,6.029,13.2958,4.59964,2469.923,2019-11-24T02:33:23Z
2019-11-24T00:35:57Z,42.805,6.029,13.2968,4.59963,2469.947,2019-11-24T02:36:26Z
2019-11-24T00:39:01Z,42.805,6.029,13.2966,4.59967,2469.923,2019-11-24T02:39:29Z
2019-11-24T00:42:04Z,42.805,6.029,13.2962,4.59964,2469.923,2019-11-24T02:42:32Z
2019-11-24T00:45:07Z,42.805,6.029,13.2967,4.59963,2469.97,2019-11-24T02:45:35Z
2019-11-24T00:48:10Z,42.805,6.029,13.2967,4.59963,2469.96,2019-11-24T02:48:39Z
2019-11-24T00:51:13Z,42.805,6.029,13.2964,4.59964,2469.947,2019-11-24T02:51:42Z
2019-11-24T00:54:17Z,42.805,6.029,13.2964,4.59964,2469.923,2019-11-24T02:54:45Z
2019-11-24T00:57:20Z,42.805,6.029,13.2966,4.59963,2469.937,2019-11-24T02:57:49Z
2019-11-24T01:00:23Z,42.805,6.029,13.2966,4.59966,2469.97,2019-11-24T03:00:52Z
2019-11-24T01:03:27Z,42.805,6.029,13.2965,4.59964,2469.96,2019-11-24T03:03:55Z
2019-11-24T01:06:30Z,42.805,6.029,13.2964,4.59964,2469.947,2019-11-24T03:06:58Z
2019-11-24T01:09:33Z,42.805,6.029,13.2964,4.59964,2469.984,2019-11-24T03:10:01Z
2019-11-24T01:12:37Z,42.805,6.029,13.2965,4.59966,2469.947,2019-11-24T03:13:05Z
2019-11-24T01:15:40Z,42.805,6.029,13.2965,4.59966,2469.937,2019-11-24T03:16:08Z
2019-11-24T01:18:43Z,42.805,6.029,13.2964,4.59967,2469.96,2019-11-24T03:19:11Z
2019-11-24T01:21:46Z,42.805,6.029,13.2966,4.59967,2469.96,2019-11-24T03:22:15Z
2019-11-24T01:24:49Z,42.805,6.029,13.2966,4.59966,2469.923,2019-11-24T03:25:18Z
2019-11-24T01:27:53Z,42.805,6.029,13.2962,4.59966,2469.984,2019-11-24T03:28:21Z
2019-11-24T01:30:56Z,42.805,6.029,13.2963,4.59965,2469.984,2019-11-24T03:31:24Z
2019-11-24T01:33:59Z,42.805,6.029,13.2967,4.59966,2469.984,2019-11-24T03:34:27Z
2019-11-24T01:37:02Z,42.805,6.029,13.2968,4.59964,2469.96,2019-11-24T03:37:31Z
2019-11-24T01:40:05Z,42.805,6.029,13.2967,4.59965,2469.984,2019-11-24T03:40:34Z
2019-11-24T01:43:09Z,42.805,6.029,13.2964,4.59966,2469.993,2019-11-24T03:43:37Z
2019-11-24T01:46:12Z,42.805,6.029,13.2964,4.59965,2469.993,2019-11-24T03:46:40Z
2019-11-24T01:49:15Z,42.805,6.029,13.2965,4.59967,2469.984,2019-11-24T03:49:43Z
2019-11-24T01:52:18Z,42.805,6.029,13.2962,4.59967,2469.984,2019-11-24T03:52:47Z
2019-11-24T01:55:21Z,42.805,6.029,13.2971,4.59966,2470.007,2019-11-24T03:55:50Z
2019-11-24T01:58:24Z,42.805,6.029,13.2964,4.59966,2470.007,2019-11-24T03:58:53Z
2019-11-24T02:01:28Z,42.805,6.029,13.2963,4.59965,2470.007,2019-11-24T04:01:56Z
2019-11-24T02:04:31Z,42.805,6.029,13.2964,4.59965,2469.993,2019-11-24T04:04:59Z
2019-11-24T02:07:34Z,42.805,6.029,13.2964,4.59967,2469.97,2019-11-24T04:08:02Z
2019-11-24T02:10:37Z,42.805,6.029,13.2965,4.59968,2469.984,2019-11-24T04:11:06Z
2019-11-24T02:13:40Z,42.805,6.029,13.2961,4.59965,2469.993,2019-11-24T04:14:09Z
2019-11-24T02:16:44Z,42.805,6.029,13.2968,4.59966,2469.984,2019-11-24T04:17:12Z
2019-11-24T02:19:47Z,42.805,6.029,13.2961,4.59966,2470.017,2019-11-24T04:20:15Z
2019-11-24T02:22:50Z,42.805,6.029,13.2966,4.59967,2470.017,2019-11-24T04:23:19Z
2019-11-24T02:25:53Z,42.805,6.029,13.2964,4.59964,2470.017,2019-11-24T04:26:22Z
2019-11-24T02:28:56Z,42.805,6.029,13.2964,4.59966,2470.03,2019-11-24T04:29:25Z
2019-11-24T02:32:00Z,42.805,6.029,13.2967,4.59967,2469.993,2019-11-24T04:32:28Z
2019-11-24T02:35:03Z,42.805,6.029,13.2963,4.59966,2470.017,2019-11-24T04:35:31Z
2019-11-24T02:38:06Z,42.805,6.029,13.2966,4.59967,2470.053,2019-11-24T04:38:35Z
2019-11-24T02:41:09Z,42.805,6.029,13.2968,4.59967,2470.04,2019-11-24T04:41:38Z
2019-11-24T02:44:12Z,42.805,6.029,13.2963,4.59968,2470.053,2019-11-24T04:44:41Z
2019-11-24T02:47:16Z,42.805,6.029,13.2967,4.59968,2470.04,2019-11-24T04:47:44Z
2019-11-24T02:50:19Z,42.805,6.029,13.2963,4.59966,2469.979,2019-11-24T04:50:47Z
2019-11-24T02:53:22Z,42.805,6.029,13.2968,4.59966,2470.053,2019-11-24T04:53:51Z
2019-11-24T02:56:25Z,42.805,6.029,13.2964,4.59968,2470.017,2019-11-24T04:56:54Z
2019-11-24T02:59:29Z,42.805,6.029,13.2967,4.59967,2470.053,2019-11-24T04:59:58Z
2019-11-24T03:02:32Z,42.805,6.029,13.2965,4.59968,2470.017,2019-11-24T05:03:01Z
2019-11-24T03:05:36Z,42.805,6.029,13.2964,4.59968,2470.077,2019-11-24T05:06:04Z
2019-11-24T03:08:39Z,42.805,6.029,13.2969,4.59967,2470.053,2019-11-24T05:09:07Z
2019-11-24T03:11:42Z,42.805,6.029,13.2964,4.59966,2470.063,2019-11-24T05:12:11Z
2019-11-24T03:14:45Z,42.805,6.029,13.2967,4.59968,2470.063,2019-11-24T05:15:14Z
2019-11-24T03:17:48Z,42.805,6.029,13.2965,4.59967,2470.04,2019-11-24T05:18:17Z
2019-11-24T03:20:52Z,42.805,6.029,13.2964,4.59967,2470.077,2019-11-24T05:21:20Z
2019-11-24T03:23:55Z,42.805,6.029,13.2967,4.59969,2470.077,2019-11-24T05:24:23Z
2019-11-24T03:26:58Z,42.805,6.029,13.2968,4.59967,2470.077,2019-11-24T05:27:26Z
2019-11-24T03:30:01Z,42.805,6.029,13.2966,4.59965,2470.053,2019-11-24T05:30:30Z
2019-11-24T03:33:04Z,42.805,6.029,13.2968,4.59967,2470.063,2019-11-24T05:33:33Z
2019-11-24T03:36:08Z,42.805,6.029,13.2965,4.59966,2470.04,2019-11-24T05:36:36Z
2019-11-24T03:39:11Z,42.805,6.029,13.2962,4.59968,2470.077,2019-11-24T05:39:39Z
2019-11-24T03:42:14Z,42.805,6.029,13.2967,4.59968,2470.063,2019-11-24T05:42:43Z
2019-11-24T03:45:17Z,42.805,6.029,13.2971,4.59967,2470.087,2019-11-24T05:45:46Z
2019-11-24T03:48:20Z,42.805,6.029,13.2966,4.59970,2470.087,2019-11-24T05:48:49Z
2019-11-24T03:51:24Z,42.805,6.029,13.2966,4.59968,2470.053,2019-11-24T05:51:52Z
2019-11-24T03:54:27Z,42.805,6.029,13.2967,4.59970,2470.087,2019-11-24T05:54:55Z
2019-11-24T03:57:30Z,42.805,6.029,13.2967,4.59968,2470.063,2019-11-24T05:57:59Z
2019-11-24T04:00:34Z,42.805,6.029,13.2964,4.59967,2470.1,2019-11-24T06:01:02Z
2019-11-24T04:03:37Z,42.805,6.029,13.2966,4.59966,2470.1,2019-11-24T06:04:06Z
2019-11-24T04:06:41Z,42.805,6.029,13.2964,4.59966,2470.1,2019-11-24T06:07:09Z
2019-11-24T04:09:44Z,42.805,6.029,13.2964,4.59970,2470.087,2019-11-24T06:10:12Z
2019-11-24T04:12:47Z,42.805,6.029,13.2965,4.59966,2470.1,2019-11-24T06:13:16Z
2019-11-24T04:15:50Z,42.805,6.029,13.2968,4.59967,2470.11,2019-11-24T06:16:19Z
2019-11-24T04:18:54Z,42.805,6.029,13.2967,4.59968,2470.087,2019-11-24T06:19:22Z
2019-11-24T04:21:57Z,42.805,6.029,13.2968,4.59967,2470.11,2019-11-24T06:22:25Z
2019-11-24T04:25:00Z,42.805,6.029,13.2967,4.59971,2470.087,2019-11-24T06:25:28Z
2019-11-24T04:28:03Z,42.805,6.029,13.2968,4.59968,2470.147,2019-11-24T06:28:32Z
2019-11-24T04:31:06Z,42.805,6.029,13.2967,4.59968,2470.063,2019-11-24T06:31:35Z
2019-11-24T04:34:10Z,42.805,6.029,13.2965,4.59967,2470.087,2019-11-24T06:34:38Z
2019-11-24T04:37:13Z,42.805,6.029,13.2965,4.59968,2470.1,2019-11-24T06:37:41Z
2019-11-24T04:40:16Z,42.805,6.029,13.2965,4.59967,2470.124,2019-11-24T06:40:44Z
2019-11-24T04:43:19Z,42.805,6.029,13.2967,4.59965,2470.11,2019-11-24T06:43:48Z
2019-11-24T04:46:23Z,42.805,6.029,13.2962,4.59966,2470.124,2019-11-24T06:46:51Z
2019-11-24T04:49:26Z,42.805,6.029,13.2967,4.59966,2470.11,2019-11-24T06:49:54Z
2019-11-24T04:52:29Z,42.805,6.029,13.2966,4.59966,2470.124,2019-11-24T06:52:58Z
2019-11-24T04:55:32Z,42.805,6.029,13.2967,4.59966,2470.11,2019-11-24T06:56:01Z
2019-11-24T04:58:36Z,42.805,6.029,13.2966,4.59965,2470.11,2019-11-24T06:59:04Z
2019-11-24T05:01:39Z,42.805,6.029,13.2964,4.59966,2470.11,2019-11-24T07:02:07Z
2019-11-24T05:04:42Z,42.805,6.029,13.2963,4.59966,2470.124,2019-11-24T07:05:11Z
2019-11-24T05:07:45Z,42.805,6.029,13.2964,4.59966,2470.087,2019-11-24T07:08:14Z
2019-11-24T05:10:49Z,42.805,6.029,13.2964,4.59966,2470.087,2019-11-24T07:11:17Z
2019-11-24T05:13:52Z,42.805,6.029,13.2968,4.59966,2470.11,2019-11-24T07:14:20Z
2019-11-24T05:16:55Z,42.805,6.029,13.2966,4.59966,2470.124,2019-11-24T07:17:23Z
2019-11-24T05:19:58Z,42.805,6.029,13.2971,4.59968,2470.087,2019-11-24T07:20:27Z
2019-11-24T05:23:01Z,42.805,6.029,13.2968,4.59966,2470.124,2019-11-24T07:23:30Z
2019-11-24T05:26:05Z,42.805,6.029,13.2964,4.59964,2470.11,2019-11-24T07:26:33Z
2019-11-24T05:29:08Z,42.805,6.029,13.2968,4.59964,2470.124,2019-11-24T07:29:36Z
2019-11-24T05:32:11Z,42.805,6.029,13.2968,4.59967,2470.124,2019-11-24T07:32:39Z
2019-11-24T05:35:14Z,42.805,6.029,13.2964,4.59965,2470.124,2019-11-24T07:35:43Z
2019-11-24T05:38:17Z,42.805,6.029,13.2967,4.59964,2470.087,2019-11-24T07:38:46Z
2019-11-24T05:41:21Z,42.805,6.029,13.2964,4.59968,2470.171,2019-11-24T07:41:49Z
2019-11-24T05:44:24Z,42.805,6.029,13.2967,4.59964,2470.133,2019-11-24T07:44:52Z
2019-11-24T05:47:27Z,42.805,6.029,13.2964,4.59967,2470.11,2019-11-24T07:47:55Z
2019-11-24T05:50:30Z,42.805,6.029,13.2964,4.59966,2470.124,2019-11-24T07:50:59Z
2019-11-24T05:53:33Z,42.805,6.029,13.2965,4.59966,2470.124,2019-11-24T07:54:02Z
2019-11-24T05:56:37Z,42.805,6.029,13.2964,4.59964,2470.1,2019-11-24T07:57:05Z
2019-11-24T05:59:40Z,42.805,6.029,13.2967,4.59967,2470.087,2019-11-24T08:00:08Z
2019-11-24T06:02:43Z,42.805,6.029,13.2966,4.59965,2470.124,2019-11-24T08:03:12Z
2019-11-24T06:05:46Z,42.805,6.029,13.2967,4.59966,2470.1,2019-11-24T08:06:15Z
2019-11-24T06:08:50Z,42.805,6.029,13.2964,4.59965,2470.087,2019-11-24T08:09:18Z
2019-11-24T06:11:53Z,42.805,6.029,13.2965,4.59966,2470.1,2019-11-24T08:12:21Z
2019-11-24T06:14:56Z,42.805,6.029,13.2961,4.59966,2470.11,2019-11-24T08:15:24Z
2019-11-24T06:17:59Z,42.805,6.029,13.2967,4.59966,2470.087,2019-11-24T08:18:28Z
2019-11-24T06:21:02Z,42.805,6.029,13.2964,4.59966,2470.11,2019-11-24T08:21:31Z
2019-11-24T06:24:06Z,42.805,6.029,13.2967,4.59965,2470.11,2019-11-24T08:24:34Z
2019-11-24T06:27:09Z,42.805,6.029,13.2968,4.59964,2470.087,2019-11-24T08:27:38Z
2019-11-24T06:30:12Z,42.805,6.029,13.2964,4.59966,2470.11,2019-11-24T08:30:41Z
2019-11-24T06:33:16Z,42.805,6.029,13.2964,4.59965,2470.087,2019-11-24T08:33:44Z
2019-11-24T06:36:19Z,42.805,6.029,13.2966,4.59966,2470.11,2019-11-24T08:36:47Z
2019-11-24T06:39:22Z,42.805,6.029,13.2962,4.59966,2470.124,2019-11-24T08:39:51Z
2019-11-24T06:42:25Z,42.805,6.029,13.2967,4.59966,2470.1,2019-11-24T08:42:54Z
2019-11-24T06:45:28Z,42.805,6.029,13.2964,4.59965,2470.124,2019-11-24T08:45:57Z
2019-11-24T06:48:32Z,42.805,6.029,13.2964,4.59966,2470.063,2019-11-24T08:49:00Z
2019-11-24T06:51:35Z,42.805,6.029,13.2966,4.59967,2470.1,2019-11-24T08:52:03Z
2019-11-24T06:54:38Z,42.805,6.029,13.2964,4.59966,2470.087,2019-11-24T08:55:06Z
2019-11-24T06:57:41Z,42.805,6.029,13.2967,4.59967,2470.087,2019-11-24T08:58:10Z
2019-11-24T07:00:44Z,42.805,6.029,13.2964,4.59968,2470.1,2019-11-24T09:01:13Z
2019-11-24T07:03:48Z,42.805,6.029,13.2963,4.59966,2470.087,2019-11-24T09:04:16Z
2019-11-24T07:06:51Z,42.805,6.029,13.2967,4.59965,2470.11,2019-11-24T09:07:19Z
2019-11-24T07:09:54Z,42.805,6.029,13.2964,4.59966,2470.063,2019-11-24T09:10:22Z
2019-11-24T07:12:57Z,42.805,6.029,13.2962,4.59970,2470.087,2019-11-24T09:13:26Z
2019-11-24T07:16:01Z,42.805,6.029,13.2963,4.59964,2470.063,2019-11-24T09:16:29Z
2019-11-24T07:19:04Z,42.805,6.029,13.2967,4.59966,2470.11,2019-11-24T09:19:32Z
2019-11-24T07:22:07Z,42.805,6.029,13.2966,4.59965,2470.077,2019-11-24T09:22:35Z
2019-11-24T07:25:10Z,42.805,6.029,13.2964,4.59966,2470.063,2019-11-24T09:25:38Z
2019-11-24T07:28:13Z,42.805,6.029,13.2970,4.59966,2470.073,2019-11-24T09:28:42Z
2019-11-24T07:31:16Z,42.805,6.029,13.2964,4.59965,2470.077,2019-11-24T09:31:45Z
2019-11-24T07:34:20Z,42.805,6.029,13.2967,4.59966,2470.077,2019-11-24T09:34:48Z
2019-11-24T07:37:23Z,42.805,6.029,13.2967,4.59968,2470.087,2019-11-24T09:37:51Z
2019-11-24T07:40:26Z,42.805,6.029,13.2965,4.59967,2470.1,2019-11-24T09:40:55Z
2019-11-24T07:43:29Z,42.805,6.029,13.2964,4.59965,2470.063,2019-11-24T09:43:58Z
2019-11-24T07:46:33Z,42.805,6.029,13.2962,4.59966,2470.124,2019-11-24T09:47:01Z
2019-11-24T07:49:36Z,42.805,6.029,13.2961,4.59966,2470.1,2019-11-24T09:50:04Z
2019-11-24T07:52:39Z,42.805,6.029,13.2964,4.59968,2470.04,2019-11-24T09:53:07Z
2019-11-24T07:55:42Z,42.805,6.029,13.2961,4.59966,2470.063,2019-11-24T09:56:11Z
2019-11-24T07:58:45Z,42.805,6.029,13.2965,4.59963,2470.063,2019-11-24T09:59:14Z
2019-11-24T08:01:49Z,42.805,6.029,13.2961,4.59966,2470.063,2019-11-24T10:02:17Z
2019-11-24T08:04:52Z,42.805,6.029,13.2967,4.59967,2470.077,2019-11-24T10:05:20Z
2019-11-24T08:07:55Z,42.805,6.029,13.2964,4.59964,2470.077,2019-11-24T10:08:23Z
2019-11-24T08:10:58Z,42.805,6.029,13.2965,4.59966,2470.04,2019-11-24T10:11:27Z
2019-11-24T08:14:01Z,42.805,6.029,13.2967,4.59967,2470.063,2019-11-24T10:14:30Z
2019-11-24T08:17:05Z,42.805,6.029,13.2969,4.59966,2470.04,2019-11-24T10:17:33Z
2019-11-24T08:20:08Z,42.805,6.029,13.2968,4.59967,2470.063,2019-11-24T10:20:36Z
2019-11-24T08:23:11Z,42.805,6.029,13.2964,4.59968,2470.053,2019-11-24T10:23:39Z
2019-11-24T08:26:14Z,42.805,6.029,13.2965,4.59966,2470.063,2019-11-24T10:26:43Z
2019-11-24T08:29:17Z,42.805,6.029,13.2964,4.59966,2470.03,2019-11-24T10:29:46Z
2019-11-24T08:32:21Z,42.805,6.029,13.2962,4.59969,2470.077,2019-11-24T10:32:49Z
2019-11-24T08:35:24Z,42.805,6.029,13.2967,4.59967,2470.053,2019-11-24T10:35:52Z
2019-11-24T08:38:27Z,42.805,6.029,13.2964,4.59967,2470.04,2019-11-24T10:38:55Z
2019-11-24T08:41:30Z,42.805,6.029,13.2967,4.59969,2470.063,2019-11-24T10:41:59Z
2019-11-24T08:44:33Z,42.805,6.029,13.2967,4.59968,2470.063,2019-11-24T10:45:02Z
2019-11-24T08:47:37Z,42.805,6.029,13.2967,4.59965,2470.04,2019-11-24T10:48:05Z
2019-11-24T08:50:40Z,42.805,6.029,13.2966,4.59966,2470.017,2019-11-24T10:51:08Z
2019-11-24T08:53:43Z,42.805,6.029,13.2965,4.59964,2470.04,2019-11-24T10:54:11Z
2019-11-24T08:56:47Z,42.805,6.029,13.2964,4.59970,2470.04,2019-11-24T10:57:15Z
2019-11-24T08:59:50Z,42.805,6.029,13.2968,4.59966,2469.993,2019-11-24T11:00:18Z
2019-11-24T09:02:53Z,42.805,6.029,13.2962,4.59965,2470.017,2019-11-24T11:03:21Z
2019-11-24T09:05:56Z,42.805,6.029,13.2967,4.59966,2470.03,2019-11-24T11:06:25Z
2019-11-24T09:08:59Z,42.805,6.029,13.2970,4.59967,2470.053,2019-11-24T11:09:28Z
2019-11-24T09:12:03Z,42.805,6.029,13.2967,4.59966,2470.017,2019-11-24T11:12:31Z
2019-11-24T09:15:06Z,42.805,6.029,13.2963,4.59968,2470.017,2019-11-24T11:15:34Z
2019-11-24T09:18:09Z,42.805,6.029,13.2964,4.59967,2470.04,2019-11-24T11:18:38Z
2019-11-24T09:21:12Z,42.805,6.029,13.2967,4.59968,2469.993,2019-11-24T11:21:41Z
2019-11-24T09:24:15Z,42.805,6.029,13.2966,4.59969,2469.993,2019-11-24T11:24:44Z
2019-11-24T09:27:19Z,42.805,6.029,13.2965,4.59971,2469.993,2019-11-24T11:27:47Z
2019-11-24T09:30:22Z,42.805,6.029,13.2965,4.59970,2469.993,2019-11-24T11:30:50Z
2019-11-24T09:33:25Z,42.805,6.029,13.2967,4.59968,2470.03,2019-11-24T11:33:53Z
2019-11-24T09:36:28Z,42.805,6.029,13.2965,4.59968,2469.993,2019-11-24T11:36:57Z
2019-11-24T09:39:31Z,42.805,6.029,13.2967,4.59969,2470.017,2019-11-24T11:40:00Z
2019-11-24T09:42:35Z,42.805,6.029,13.2967,4.59966,2469.993,2019-11-24T11:43:03Z
2019-11-24T09:45:38Z,42.805,6.029,13.2963,4.59966,2469.993,2019-11-24T11:46:06Z
2019-11-24T09:48:41Z,42.805,6.029,13.2966,4.59968,2469.993,2019-11-24T11:49:10Z
2019-11-24T09:51:44Z,42.805,6.029,13.2967,4.59968,2469.993,2019-11-24T11:52:13Z
2019-11-24T09:54:47Z,42.805,6.029,13.2963,4.59966,2469.993,2019-11-24T11:55:16Z
2019-11-24T09:57:51Z,42.805,6.029,13.2968,4.59966,2469.984,2019-11-24T11:58:19Z
2019-11-24T10:00:54Z,42.805,6.029,13.2965,4.59966,2470.017,2019-11-24T12:01:22Z
2019-11-24T10:03:57Z,42.805,6.029,13.2961,4.59968,2470.017,2019-11-24T12:04:26Z
2019-11-24T10:07:00Z,42.805,6.029,13.2968,4.59967,2469.97,2019-11-24T12:07:29Z
2019-11-24T10:10:04Z,42.805,6.029,13.2967,4.59967,2469.984,2019-11-24T12:10:32Z
2019-11-24T10:13:07Z,42.805,6.029,13.2967,4.59966,2469.993,2019-11-24T12:13:35Z
2019-11-24T10:16:10Z,42.805,6.029,13.2967,4.59965,2470.007,2019-11-24T12:16:38Z
2019-11-24T10:19:13Z,42.805,6.029,13.2965,4.59967,2470.03,2019-11-24T12:19:42Z
2019-11-24T10:22:16Z,42.805,6.029,13.2966,4.59966,2469.96,2019-11-24T12:22:45Z
2019-11-24T10:25:20Z,42.805,6.029,13.2966,4.59966,2470.017,2019-11-24T12:25:48Z
2019-11-24T10:28:23Z,42.805,6.029,13.2968,4.59966,2469.97,2019-11-24T12:28:51Z
2019-11-24T10:31:26Z,42.805,6.029,13.2961,4.59965,2469.984,2019-11-24T12:31:54Z
2019-11-24T10:34:29Z,42.805,6.029,13.2964,4.59966,2469.96,2019-11-24T12:34:58Z
2019-11-24T10:37:32Z,42.805,6.029,13.2962,4.59968,2470.007,2019-11-24T12:38:01Z
2019-11-24T10:40:35Z,42.805,6.029,13.2967,4.59968,2469.96,2019-11-24T12:41:04Z
2019-11-24T10:43:39Z,42.805,6.029,13.2968,4.59968,2469.947,2019-11-24T12:44:07Z
2019-11-24T10:46:42Z,42.805,6.029,13.2967,4.59967,2469.984,2019-11-24T12:47:10Z
2019-11-24T10:49:45Z,42.805,6.029,13.2965,4.59965,2469.947,2019-11-24T12:50:14Z
2019-11-24T10:52:48Z,42.805,6.029,13.2967,4.59968,2469.947,2019-11-24T12:53:17Z
2019-11-24T10:55:52Z,42.805,6.029,13.2966,4.59969,2469.984,2019-11-24T12:56:20Z
2019-11-24T10:58:55Z,42.805,6.029,13.2964,4.59968,2469.984,2019-11-24T12:59:23Z
2019-11-24T11:01:58Z,42.805,6.029,13.2967,4.59967,2469.9,2019-11-24T13:02:26Z
2019-11-24T11:05:01Z,42.805,6.029,13.2968,4.59966,2469.96,2019-11-24T13:05:30Z
2019-11-24T11:08:04Z,42.805,6.029,13.2966,4.59968,2469.96,2019-11-24T13:08:33Z
2019-11-24T11:11:08Z,42.805,6.029,13.2962,4.59965,2469.947,2019-11-24T13:11:36Z
2019-11-24T11:14:11Z,42.805,6.029,13.2967,4.59966,2469.933,2019-11-24T13:14:39Z
2019-11-24T11:17:14Z,42.805,6.029,13.2964,4.59964,2469.947,2019-11-24T13:17:43Z
2019-11-24T11:20:17Z,42.805,6.029,13.2966,4.59970,2469.9,2019-11-24T13:20:46Z
2019-11-24T11:23:20Z,42.805,6.029,13.2964,4.59967,2469.937,2019-11-24T13:23:49Z
2019-11-24T11:26:24Z,42.805,6.029,13.2964,4.59967,2469.96,2019-11-24T13:26:52Z
2019-11-24T11:29:27Z,42.805,6.029,13.2964,4.59968,2469.923,2019-11-24T13:29:55Z
2019-11-24T11:32:30Z,42.805,6.029,13.2966,4.59966,2469.9,2019-11-24T13:32:59Z
2019-11-24T11:35:33Z,42.805,6.029,13.2967,4.59968,2469.937,2019-11-24T13:36:02Z
2019-11-24T11:38:36Z,42.805,6.029,13.2964,4.59964,2469.923,2019-11-24T13:39:05Z
2019-11-24T11:41:40Z,42.805,6.029,13.2966,4.59970,2469.937,2019-11-24T13:42:08Z
2019-11-24T11:44:43Z,42.805,6.029,13.2964,4.59966,2469.984,2019-11-24T13:45:11Z
2019-11-24T11:47:46Z,42.805,6.029,13.2968,4.59968,2469.937,2019-11-24T13:48:14Z
2019-11-24T11:50:49Z,42.805,6.029,13.2970,4.59968,2469.923,2019-11-24T13:51:18Z
2019-11-24T11:53:52Z,42.805,6.029,13.2965,4.59967,2469.947,2019-11-24T13:54:21Z
2019-11-24T11:56:56Z,42.805,6.029,13.2966,4.59967,2469.9,2019-11-24T13:57:24Z
2019-11-24T11:59:59Z,42.805,6.029,13.2967,4.59967,2469.96,2019-11-24T14:00:27Z
2019-11-24T12:03:02Z,42.805,6.029,13.2967,4.59967,2469.937,2019-11-24T14:03:30Z
2019-11-24T12:06:05Z,42.805,6.029,13.2967,4.59968,2469.937,2019-11-24T14:06:34Z
2019-11-24T12:09:08Z,42.805,6.029,13.2965,4.59966,2469.937,2019-11-24T14:09:37Z
2019-11-24T12:12:12Z,42.805,6.029,13.2967,4.59967,2469.923,2019-11-24T14:12:40Z
2019-11-24T12:15:15Z,42.805,6.029,13.2965,4.59967,2469.923,2019-11-24T14:15:43Z
2019-11-24T12:18:18Z,42.805,6.029,13.2968,4.59968,2469.923,2019-11-24T14:18:46Z
2019-11-24T12:21:21Z,42.805,6.029,13.2966,4.59968,2469.923,2019-11-24T14:21:50Z
2019-11-24T12:24:24Z,42.805,6.029,13.2969,4.59965,2469.947,2019-11-24T14:24:53Z
2019-11-24T12:27:28Z,42.805,6.029,13.2967,4.59966,2469.937,2019-11-24T14:27:56Z
2019-11-24T12:30:31Z,42.805,6.029,13.2970,4.59968,2469.947,2019-11-24T14:30:59Z
2019-11-24T12:33:34Z,42.805,6.029,13.2967,4.59967,2469.947,2019-11-24T14:34:02Z
2019-11-24T12:36:37Z,42.805,6.029,13.2967,4.59968,2469.923,2019-11-24T14:37:06Z
2019-11-24T12:39:40Z,42.805,6.029,13.2966,4.59966,2469.937,2019-11-24T14:40:09Z
2019-11-24T12:42:43Z,42.805,6.029,13.2965,4.59966,2469.96,2019-11-24T14:43:12Z
2019-11-24T12:45:47Z,42.805,6.029,13.2968,4.59967,2469.923,2019-11-24T14:46:15Z
2019-11-24T12:48:50Z,42.805,6.029,13.2966,4.59970,2469.97,2019-11-24T14:49:18Z
2019-11-24T12:51:53Z,42.805,6.029,13.2967,4.59970,2469.947,2019-11-24T14:52:22Z
2019-11-24T12:54:56Z,42.805,6.029,13.2967,4.59968,2469.9,2019-11-24T14:55:25Z
2019-11-24T12:58:00Z,42.805,6.029,13.2966,4.59967,2469.96,2019-11-24T14:58:28Z
2019-11-24T13:01:03Z,42.805,6.029,13.2965,4.59967,2469.96,2019-11-24T15:01:31Z
2019-11-24T13:04:06Z,42.805,6.029,13.2967,4.59968,2469.923,2019-11-24T15:04:35Z
2019-11-24T13:07:09Z,42.805,6.029,13.2968,4.59967,2469.96,2019-11-24T15:07:38Z
2019-11-24T13:10:13Z,42.805,6.029,13.2967,4.59968,2469.923,2019-11-24T15:10:41Z
2019-11-24T13:13:16Z,42.805,6.029,13.2967,4.59967,2469.923,2019-11-24T15:13:44Z
2019-11-24T13:16:19Z,42.805,6.029,13.2965,4.59966,2469.96,2019-11-24T15:16:48Z
2019-11-24T13:19:22Z,42.805,6.029,13.2968,4.59967,2469.96,2019-11-24T15:19:51Z
2019-11-24T13:22:25Z,42.805,6.029,13.2966,4.59970,2469.947,2019-11-24T15:22:54Z
2019-11-24T13:25:29Z,42.805,6.029,13.2969,4.59967,2469.947,2019-11-24T15:25:57Z
2019-11-24T13:28:32Z,42.805,6.029,13.2970,4.59968,2469.923,2019-11-24T15:29:00Z
2019-11-24T13:31:35Z,42.805,6.029,13.2966,4.59967,2469.97,2019-11-24T15:32:03Z
2019-11-24T13:34:38Z,42.805,6.029,13.2966,4.59967,2469.96,2019-11-24T15:35:07Z
2019-11-24T13:37:41Z,42.805,6.029,13.2966,4.59968,2469.947,2019-11-24T15:38:10Z
2019-11-24T13:40:45Z,42.805,6.029,13.2964,4.59966,2469.97,2019-11-24T15:41:13Z
2019-11-24T13:43:48Z,42.805,6.029,13.2966,4.59967,2469.947,2019-11-24T15:44:16Z
2019-11-24T13:46:51Z,42.805,6.029,13.2967,4.59968,2469.947,2019-11-24T15:47:19Z
2019-11-24T13:49:54Z,42.805,6.029,13.2971,4.59968,2469.947,2019-11-24T15:50:23Z
2019-11-24T13:52:57Z,42.805,6.029,13.2965,4.59967,2469.947,2019-11-24T15:53:26Z
2019-11-24T13:56:01Z,42.805,6.029,13.2965,4.59966,2469.984,2019-11-24T15:56:29Z
2019-11-24T13:59:04Z,42.805,6.029,13.2969,4.59967,2469.97,2019-11-24T15:59:32Z
2019-11-24T14:02:07Z,42.805,6.029,13.2965,4.59967,2469.97,2019-11-24T16:02:35Z
2019-11-24T14:05:10Z,42.805,6.029,13.2967,4.59967,2469.984,2019-11-24T16:05:39Z
2019-11-24T14:08:13Z,42.805,6.029,13.2966,4.59967,2469.97,2019-11-24T16:08:42Z
2019-11-24T14:11:17Z,42.805,6.029,13.2964,4.59967,2469.947,2019-11-24T16:11:45Z
2019-11-24T14:14:20Z,42.805,6.029,13.2964,4.59967,2469.993,2019-11-24T16:14:48Z
2019-11-24T14:17:23Z,42.805,6.029,13.2966,4.59967,2470.007,2019-11-24T16:17:52Z
2019-11-24T14:20:26Z,42.805,6.029,13.2967,4.59967,2470.007,2019-11-24T16:20:55Z
2019-11-24T14:23:29Z,42.805,6.029,13.2968,4.59966,2470.007,2019-11-24T16:23:58Z
2019-11-24T14:26:33Z,42.805,6.029,13.2968,4.59967,2470.007,2019-11-24T16:27:01Z
2019-11-24T14:29:36Z,42.805,6.029,13.2964,4.59968,2469.993,2019-11-24T16:30:04Z
2019-11-24T14:32:39Z,42.805,6.029,13.2968,4.59968,2470.03,2019-11-24T16:33:08Z
2019-11-24T14:35:42Z,42.805,6.029,13.2967,4.59966,2470.03,2019-11-24T16:36:11Z
2019-11-24T14:38:46Z,42.805,6.029,13.2967,4.59968,2470.007,2019-11-24T16:39:14Z
2019-11-24T14:41:49Z,42.805,6.029,13.2967,4.59968,2470.017,2019-11-24T16:42:17Z
2019-11-24T14:44:52Z,42.805,6.029,13.2968,4.59967,2469.993,2019-11-24T16:45:20Z
2019-11-24T14:47:55Z,42.805,6.029,13.2968,4.59968,2470.03,2019-11-24T16:48:24Z
2019-11-24T14:50:58Z,42.805,6.029,13.2962,4.59966,2470.017,2019-11-24T16:51:27Z
2019-11-24T14:54:02Z,42.805,6.029,13.2967,4.59966,2470.03,2019-11-24T16:54:30Z
2019-11-24T14:57:05Z,42.805,6.029,13.2967,4.59967,2470.017,2019-11-24T16:57:33Z
2019-11-24T15:00:08Z,42.805,6.029,13.2966,4.59968,2470.04,2019-11-24T17:00:36Z
2019-11-24T15:03:11Z,42.805,6.029,13.2969,4.59977,2470.04,2019-11-24T17:03:40Z